{"data":{"norad_id":40345,"epoch":"2026-09-19T20:39:24.020352Z","epoch_age_seconds":77168,"freshness":"FRESH","line1":"1 40345U 14082A   26262.86069468 -.00000233  00000+0  00000+0 0  9993","line2":"2 40345   0.0160 205.4078 0000688 336.8177 216.3523  1.00274321 42860","mean_motion":1.00274321,"eccentricity":6.88e-5,"inclination_deg":0.016,"raan_deg":205.4078,"arg_perigee_deg":336.8177,"mean_anomaly_deg":216.3523,"bstar":0,"rev_number":4286,"period_min":1436.0605842447,"perigee_km":35782.983158667,"apogee_km":35788.784927962,"semimajor_km":42164.021043315,"source":"CELESTRAK","updated_at":"2026-09-20T09:00:35.213876Z"}}